Wetbulb
58.03 58.39 58.48 58.67 58.66 58.52 58.62 58.68 58.86 59.12 59.36 59.59 59.67 59.79 60.01 60.36 59.91 61.20 60.97 64.26 67.90 73.17 74.29 69.62 68.72 69.77 71.35 68.71 68.68 68.03 57.62 56.02 58.21 58.51 58.91 61.94 61.73 64.55 66.09 64.62 65.99 67.82 67.31 68.69 70.33
57.66 57.93 58.22 58.43 58.27 58.38 58.20 58.32 58.55 58.60 58.77 58.84 59.17 59.53 59.86 60.34 59.55 56.37 65.94 73.06 73.87 73.28 70.77 67.93 68.92 69.81 65.85 66.71 66.07 62.63 53.88 56.91 60.65 60.71 60.09 63.30 63.70 62.35 61.95 62.11 64.84 66.52 69.38 70.29 70.17
57.16 57.14 57.19 57.18 57.59 57.97 58.02 57.98 58.23 58.19 58.21 58.43 58.98 59.56 60.00 59.91 58.64 60.08 75.33 74.39 72.62 72.94 66.54 68.01 69.70 67.73 60.97 62.65 62.96 60.58 56.60 59.89 60.11 59.68 62.19 61.99 64.15 65.17 62.03 60.74 62.81 64.77 66.66 68.53 68.75
56.88 56.86 56.80 56.83 56.73 57.48 57.69 57.73 57.77 57.80 57.84 58.23 59.00 59.61 60.19 60.18 50.53 67.67 75.18 74.17 72.70 71.43 65.70 63.95 66.78 62.77 60.55 58.49 62.51 56.82 58.04 58.85 58.57 59.73 58.77 61.23 65.00 64.25 63.79 63.37 66.17 67.83 67.95 68.27 68.15
56.36 56.26 56.21 56.71 57.06 57.12 57.39 57.42 57.30 57.19 57.44 58.06 58.98 59.97 58.88 53.19 56.43 72.15 75.53 73.85 70.72 69.18 63.41 64.88 64.63 62.46 58.99 58.98 56.96 55.03 56.50 58.31 59.01 58.70 58.52 60.54 59.05 60.72 63.02 66.55 68.02 68.34 68.32 68.16 68.38
56.26 56.19 56.25 56.63 56.62 56.72 56.67 56.58 56.50 56.51 57.19 58.09 59.07 60.12 58.92 50.45 62.39 71.57 69.27 69.75 67.53 65.47 64.88 66.50 65.59 64.05 60.03 57.19 54.57 56.19 57.07 57.48 57.78 58.70 59.52 58.35 58.84 58.97 62.71 67.80 67.34 67.39 66.66 68.00 68.39
55.38 55.63 55.77 56.11 56.27 56.20 56.13 56.00 55.97 56.29 57.20 58.02 59.13 60.80 56.33 52.33 59.73 69.00 67.43 66.03 66.68 63.65 63.75 67.43 66.04 61.75 60.24 56.13 58.25 55.87 52.91 55.67 56.28 57.40 57.43 59.82 57.82 58.50 62.85 66.92 66.21 66.55 66.73 67.43 68.14
54.97 54.90 55.42 55.48 55.54 55.76 55.59 55.14 55.50 56.64 57.70 59.07 60.33 58.73 52.48 58.39 57.71 57.98 67.22 65.71 65.18 63.98 65.11 65.23 63.56 59.16 53.92 55.83 54.33 51.47 51.25 48.22 55.09 56.44 58.25 58.64 52.84 60.41 62.18 61.43 64.82 66.00 66.86 66.97 67.47
54.77 54.95 54.80 54.84 54.99 54.83 54.47 54.31 55.78 57.81 59.00 60.48 57.49 55.07 49.85 62.05 57.69 57.98 60.40 64.03 65.12 63.86 63.50 65.67 61.14 55.42 53.39 49.58 47.37 48.86 45.61 48.44 51.89 56.86 60.34 59.38 55.64 60.89 61.88 61.92 63.54 64.92 65.79 67.19 67.33
54.38 54.37 54.33 54.31 54.27 53.96 53.69 54.22 56.06 58.00 58.87 60.39 59.80 51.77 56.05 56.08 58.91 58.08 57.17 63.36 63.43 62.62 61.52 60.35 55.15 49.06 48.46 45.74 40.93 44.88 46.07 48.63 50.07 55.33 58.15 57.01 56.20 59.36 60.91 61.80 62.73 63.29 65.53 66.25 67.11
54.09 54.08 53.85 53.77 53.40 53.05 51.19 50.60 52.21 52.09 53.36 51.71 53.12 51.57 51.85 56.35 59.94 57.69 57.79 56.62 59.93 59.61 54.72 56.94 49.20 44.48 47.31 49.03 50.72 50.20 48.71 48.30 50.96 54.10 53.33 54.19 55.03 55.18 59.49 59.53 60.01 63.35 65.07 65.30 66.55
54.01 53.80 53.65 53.44 52.67 52.25 50.72 50.70 51.48 51.23 47.46 52.73 52.26 52.75 56.01 57.73 53.70 55.85 58.23 51.85 54.14 53.11 55.77 51.68 48.14 51.41 53.16 52.43 50.80 49.81 48.39 48.04 50.86 54.07 51.09 50.71 50.82 53.01 54.04 55.57 56.38 61.62 65.20 65.72 66.18
53.79 53.62 53.23 52.98 51.87 52.67 51.02 51.30 54.23 52.93 46.06 48.76 51.18 50.73 52.21 53.80 52.59 54.05 54.33 52.86 51.25 51.36 53.03 49.29 50.56 54.18 52.69 51.16 49.67 47.93 45.58 47.43 48.18 51.43 50.53 49.60 48.04 50.28 54.02 56.38 56.92 58.53 66.19 66.94 66.53
53.34 53.15 52.79 51.54 50.52 49.62 50.51 54.66 54.24 52.66 40.21 45.73 48.43 51.28 52.09 53.06 49.48 56.06 57.15 53.85 51.03 48.56 50.52 49.40 53.06 52.32 51.43 50.11 50.00 43.20 50.26 50.30 50.05 47.06 41.56 48.53 40.04 47.10 52.14 54.08 56.96 57.83 61.90 66.32 67.29
53.02 52.88 52.54 51.48 46.37 48.77 52.61 55.20 54.71 50.59 32.20 49.55 50.39 56.31 52.92 50.03 51.06 52.05 56.54 53.86 50.12 50.16 49.51 47.88 49.91 50.03 49.81 50.44 51.55 47.57 51.18 49.53 49.46 44.86 42.02 45.49 40.45 44.89 49.11 51.51 55.75 57.62 60.69 65.46 67.93
52.71 52.36 52.17 49.79 48.80 51.75 53.65 53.80 50.37 39.46 34.68 46.90 51.43 50.19 49.10 50.43 50.61 52.20 52.42 55.60 54.82 50.38 51.39 50.64 54.20 52.51 51.53 53.81 53.01 52.94 49.45 47.78 46.05 42.41 37.57 43.12 43.25 44.52 46.52 52.70 55.27 58.74 60.88 61.52 62.59
51.88 51.27 50.27 50.09 46.18 51.12 53.16 49.54 38.33 35.01 48.44 45.91 47.07 50.35 49.70 48.31 48.60 49.29 48.31 48.05 47.75 43.17 43.87 48.62 49.87 52.72 54.01 50.46 51.91 49.55 43.96 36.85 36.05 36.24 37.01 44.49 42.97 46.62 50.72 56.42 57.13 57.25 59.26 61.48 62.46
50.97 50.41 50.89 52.34 52.01 50.47 51.26 43.28 34.77 44.13 45.35 49.71 49.45 49.32 47.25 49.01 48.48 48.66 47.37 46.16 49.36 48.80 44.69 43.35 42.68 49.65 52.96 50.52 48.18 46.82 43.46 38.25 33.63 35.02 40.60 46.22 41.86 47.67 54.75 58.15 58.73 59.05 59.08 61.53 62.81
50.18 49.36 50.31 53.76 54.53 54.65 46.33 37.39 39.52 45.37 48.42 47.15 47.31 45.99 46.73 49.23 49.29 49.23 47.32 46.48 48.44 49.32 44.97 43.85 44.41 52.46 52.92 53.15 51.69 47.14 43.01 45.79 39.96 40.73 38.62 42.05 46.37 53.97 55.86 55.86 56.14 59.84 63.05 63.70 64.63
45.43 47.02 51.74 55.97 56.11 51.94 43.15 39.50 43.24 47.45 47.74 47.57 43.08 46.63 44.23 46.70 46.81 47.37 48.10 49.83 49.83 51.13 51.38 48.45 43.55 49.29 52.29 52.87 52.72 48.40 49.76 40.98 40.19 35.07 34.55 41.39 45.01 48.29 54.93 56.74 60.50 63.16 63.28 64.40 70.67
46.94 47.28 55.18 58.46 56.88 48.84 39.97 42.51 46.35 49.55 49.68 47.11 45.72 45.12 46.34 45.69 46.17 45.84 47.17 51.55 52.71 52.17 52.82 51.35 47.19 45.89 50.25 48.19 47.62 46.88 45.16 42.99 42.43 41.76 37.09 36.67 43.91 52.94 57.95 61.39 61.14 63.07 64.88 64.84 70.28
46.30 42.77 57.67 57.64 47.04 48.02 43.98 47.03 47.61 48.14 49.66 48.29 48.40 47.24 46.35 47.21 45.86 45.99 46.32 49.20 53.31 52.77 49.49 51.93 45.80 41.04 45.86 50.71 52.82 51.18 48.25 45.71 40.73 38.79 42.11 41.16 45.02 55.01 56.43 63.11 63.20 64.32 66.12 66.86 67.51
43.90 46.31 53.94 54.36 41.27 44.30 48.08 49.04 50.16 47.70 47.83 46.77 46.42 47.80 47.87 44.97 43.27 47.57 48.54 51.62 52.79 53.15 51.99 52.20 47.13 40.78 43.03 47.44 50.05 48.44 49.92 47.32 45.25 43.57 40.66 39.57 44.44 59.82 60.78 61.25 62.70 64.10 66.54 67.93 68.80
44.22 43.80 49.87 52.82 52.10 48.34 46.02 46.74 46.88 52.01 50.51 48.77 47.31 48.67 46.37 44.57 46.59 45.05 47.20 50.59 52.23 53.95 60.72 57.22 47.90 45.42 40.41 44.34 48.36 47.74 49.19 48.71 44.53 42.73 42.18 42.74 50.67 55.88 57.50 57.92 61.57 62.40 66.41 68.03 67.71
46.92 47.34 49.62 45.76 46.84 48.87 51.15 51.01 48.32 47.06 51.68 51.54 49.04 49.41 47.42 43.06 44.75 44.64 47.32 48.92 51.46 56.30 54.44 50.77 45.62 48.74 48.54 50.07 50.08 49.34 49.07 48.76 46.94 46.10 44.93 49.77 52.15 54.26 56.80 54.71 55.97 61.38 64.78 68.03 67.46
44.32 45.38 46.81 44.88 47.25 47.81 48.48 49.22 49.37 50.82 51.18 49.38 47.95 50.00 49.80 45.14 46.68 45.22 47.13 46.90 46.55 50.52 52.36 51.17 45.26 46.60 47.98 50.79 50.60 49.39 50.21 50.62 49.55 49.27 48.48 51.69 53.61 56.74 57.80 58.86 60.98 63.53 65.66 66.84 66.72
50.42 50.62 46.96 44.18 44.72 45.37 49.23 50.24 50.65 52.24 53.12 52.99 51.22 49.07 48.97 50.86 53.01 54.21 54.75 50.28 48.72 45.24 50.06 47.63 44.75 43.84 44.03 50.63 51.60 45.90 51.83 51.48 52.04 54.18 53.04 49.42 52.88 54.00 56.72 62.69 62.08 62.36 65.93 66.84 67.80
MSLP
1018.38 1017.90 1017.53 1017.07 1016.50 1015.91 1015.44 1014.95 1014.47 1013.81 1013.27 1012.70 1012.10 1011.62 1011.05 1010.59 1009.59 1009.46 1007.98 1005.50 1005.41 1005.50 1005.97 1005.66 1005.95 1005.78 1005.12 1004.69 1003.95 1003.60 1004.53 1003.66 1002.92 1002.17 1001.47 1001.50 1002.29 1002.93 1002.79 1003.05 1003.42 1003.49 1004.49 1005.48 1006.62
1018.80 1018.25 1017.64 1017.04 1016.49 1016.00 1015.44 1014.87 1014.42 1013.96 1013.44 1012.79 1012.06 1011.50 1011.15 1010.53 1009.34 1007.46 1004.68 1004.72 1004.72 1005.36 1005.84 1005.34 1004.76 1004.36 1004.30 1003.30 1002.80 1003.33 1002.78 1001.99 1000.52 1000.40 1000.30 1000.52 1001.32 1003.13 1002.92 1002.83 1004.06 1004.52 1004.94 1005.80 1006.63
1018.78 1018.40 1017.93 1017.30 1016.58 1015.92 1015.26 1014.67 1014.10 1013.59 1013.08 1012.67 1012.17 1011.47 1010.95 1010.61 1009.15 1005.18 1004.12 1004.42 1004.81 1005.08 1004.94 1004.72 1004.18 1003.81 1003.51 1002.76 1002.03 1001.83 1001.60 1000.38 999.81 999.35 999.49 1000.26 1001.07 1002.33 1002.64 1003.06 1003.46 1004.30 1005.03 1005.71 1006.50
1019.04 1018.48 1017.84 1017.23 1016.73 1016.04 1015.24 1014.53 1013.87 1013.29 1012.80 1012.39 1011.96 1011.28 1010.47 1010.15 1007.92 1004.92 1004.69 1004.75 1004.82 1005.09 1005.16 1004.57 1004.05 1003.82 1003.40 1002.64 1001.74 1001.54 1000.32 999.80 999.13 998.76 998.70 999.52 1000.38 1001.38 1001.04 1001.30 1001.91 1003.43 1004.32 1005.41 1006.25
1019.28 1018.63 1017.90 1017.16 1016.44 1015.75 1015.12 1014.46 1013.81 1013.13 1012.55 1012.20 1011.95 1011.47 1010.14 1009.26 1006.12 1004.50 1004.79 1005.19 1005.48 1005.46 1004.82 1004.50 1003.99 1003.51 1002.96 1002.34 1001.71 1001.12 1000.36 999.81 999.03 998.59 998.37 998.40 999.00 999.51 1000.83 1000.17 1001.59 1002.98 1004.06 1004.96 1005.81
1019.26 1018.71 1017.98 1017.24 1016.53 1015.66 1014.73 1013.96 1013.33 1012.72 1012.20 1012.04 1011.81 1011.65 1011.06 1008.10 1004.07 1004.12 1004.60 1005.20 1004.99 1005.07 1004.39 1004.11 1003.52 1003.05 1002.72 1002.40 1002.10 1001.10 1000.55 999.95 999.18 998.63 998.26 998.40 998.50 998.83 999.14 1000.13 1002.13 1002.54 1003.28 1004.39 1005.14
1019.44 1018.77 1017.97 1017.09 1016.26 1015.50 1014.61 1013.65 1012.68 1011.98 1011.62 1011.52 1011.57 1011.16 1009.81 1005.88 1003.70 1003.92 1004.09 1004.20 1004.31 1004.15 1004.06 1003.50 1003.03 1003.04 1002.88 1002.78 1002.10 1001.64 1001.42 1000.26 999.36 998.58 998.27 998.04 998.35 998.72 998.87 999.18 1000.80 1002.09 1002.83 1003.73 1004.69
1019.61 1018.92 1018.22 1017.34 1016.31 1015.33 1014.35 1013.16 1011.82 1011.19 1010.82 1010.92 1010.98 1010.60 1007.90 1004.04 1003.10 1003.29 1003.46 1003.56 1003.51 1003.49 1003.38 1002.81 1002.56 1002.71 1002.88 1002.81 1002.65 1002.52 1001.91 1001.07 999.16 998.52 998.07 997.94 998.64 998.55 998.44 999.20 1000.74 1001.46 1002.21 1002.80 1003.59
1019.19 1018.59 1017.72 1016.90 1016.07 1015.29 1014.28 1012.50 1010.52 1010.16 1010.11 1010.66 1010.48 1009.58 1006.15 1002.72 1002.57 1001.61 1001.90 1002.41 1002.89 1003.08 1002.88 1002.51 1002.35 1002.81 1003.06 1003.44 1003.47 1003.09 1002.48 1001.22 999.35 997.88 997.70 997.60 998.20 998.09 998.30 999.07 1000.18 1000.27 1001.32 1001.78 1002.60
1019.02 1018.21 1017.34 1016.59 1015.64 1014.91 1013.86 1011.36 1008.97 1009.52 1009.56 1009.71 1008.90 1008.20 1005.25 1002.48 1001.42 1001.29 1001.13 1001.47 1001.91 1002.37 1002.70 1002.66 1002.73 1003.16 1003.58 1003.89 1003.78 1003.19 1002.24 1000.99 999.75 998.34 997.33 997.82 997.88 997.91 997.82 997.84 998.47 999.40 1000.42 1000.74 1001.53
1019.25 1018.42 1017.47 1016.47 1015.23 1014.61 1013.88 1011.52 1009.45 1009.29 1008.45 1008.06 1006.82 1004.90 1003.23 1001.75 1001.40 1000.73 1000.70 1000.97 1001.34 1001.86 1002.29 1002.20 1003.08 1003.18 1003.39 1003.31 1002.90 1002.45 1001.76 1000.87 999.47 998.29 998.29 998.17 998.15 998.01 997.67 997.46 997.78 998.63 999.43 1000.01 1000.27
1019.24 1018.39 1017.39 1016.38 1014.72 1013.85 1014.23 1012.52 1009.92 1008.98 1007.11 1006.66 1005.67 1004.11 1003.17 1002.21 1001.34 1000.23 999.62 1000.66 1001.24 1001.49 1001.66 1002.21 1002.20 1002.09 1002.18 1002.04 1001.89 1001.66 1001.29 1000.40 999.40 998.50 998.18 998.23 998.23 997.67 997.30 997.08 996.73 997.10 998.11 998.96 999.94
1019.13 1018.39 1017.48 1016.47 1014.09 1013.14 1012.80 1010.89 1008.93 1008.13 1007.39 1005.52 1004.10 1003.12 1002.06 1001.56 1000.47 999.63 999.13 999.47 1000.55 1001.31 1001.38 1001.38 1000.92 1000.89 1000.87 1000.88 1000.78 1000.52 1000.37 1000.04 999.61 999.06 998.74 998.88 998.71 998.10 997.30 996.68 996.28 996.18 996.91 997.66 998.84
1018.94 1018.41 1017.72 1016.83 1013.60 1013.48 1011.63 1009.80 1008.87 1008.50 1007.23 1003.58 1001.34 999.93 1000.61 1000.28 999.65 999.14 998.74 998.85 999.66 1000.34 1000.96 1000.84 1000.39 999.97 999.69 999.64 999.71 999.73 999.57 999.67 999.80 1000.11 1000.29 999.59 999.73 999.09 997.84 997.09 996.42 995.65 996.03 997.15 998.39
1018.61 1018.14 1017.67 1017.71 1016.59 1014.41 1011.43 1010.29 1009.60 1008.93 1007.34 1001.41 998.84 997.38 997.90 999.67 998.85 998.13 997.87 998.06 998.72 999.29 1000.33 999.86 999.82 999.20 998.92 998.54 998.50 998.74 998.91 999.58 1000.05 1000.69 1000.91 1000.44 1000.41 999.05 997.99 997.50 996.61 996.45 996.42 996.87 997.99
1018.50 1018.14 1017.94 1016.21 1016.41 1013.24 1011.79 1010.74 1009.98 1009.30 1006.01 1001.55 999.13 998.15 997.90 998.33 998.42 998.11 997.87 997.70 998.10 998.85 999.17 999.07 998.88 998.42 998.10 997.81 997.79 998.08 998.99 999.78 1000.62 1001.58 1001.84 1001.10 1000.82 999.34 998.31 997.62 996.86 996.39 996.95 997.27 998.04
1017.99 1017.26 1017.55 1016.70 1014.03 1011.82 1011.86 1010.85 1010.25 1008.25 1004.63 1001.66 1000.25 998.72 997.79 997.73 997.84 997.95 998.03 997.93 998.22 998.76 998.88 998.64 998.36 997.85 997.54 997.58 997.56 997.94 999.45 1000.89 1002.03 1002.73 1002.49 1000.90 1000.67 998.49 997.04 996.50 996.31 996.20 996.34 996.78 997.16
1017.22 1016.06 1014.42 1013.58 1012.69 1012.94 1012.08 1011.50 1009.90 1006.89 1004.85 1002.87 1001.10 999.54 998.31 997.34 997.24 997.20 997.35 997.57 997.57 998.22 998.49 998.64 998.37 997.59 996.98 997.22 997.62 998.06 999.17 1001.00 1002.32 1003.05 1001.99 1000.80 999.90 997.54 995.84 995.49 995.52 995.69 996.00 996.77 997.33
1017.05 1014.44 1012.93 1011.22 1011.85 1011.89 1012.00 1010.94 1008.57 1006.57 1004.71 1003.56 1002.08 1000.57 999.30 998.35 998.32 997.70 996.52 997.00 997.13 997.41 997.86 997.97 997.48 997.15 996.84 996.47 996.96 997.76 998.63 999.89 1001.62 1002.04 1002.19 1000.84 998.89 996.49 995.41 996.04 995.82 996.78 997.26 997.66 998.03
1017.66 1014.82 1011.72 1009.17 1010.66 1011.07 1011.30 1009.78 1007.97 1006.47 1005.39 1004.16 1003.04 1001.76 1000.71 1000.10 999.47 998.92 998.31 996.53 996.82 996.85 996.81 997.08 997.11 996.66 996.08 996.03 996.17 996.84 997.92 999.69 1000.87 1002.01 1002.24 1000.88 999.48 997.91 996.78 996.34 996.81 997.42 998.09 998.39 998.74
1017.37 1013.94 1009.77 1009.25 1009.88 1010.68 1010.34 1008.70 1007.07 1005.64 1004.44 1003.73 1003.03 1002.22 1001.79 1001.32 1000.74 1000.16 999.32 997.83 997.72 997.06 997.05 996.81 996.63 996.58 996.23 995.61 996.03 996.45 997.40 998.77 1000.05 1001.18 1001.89 1001.27 1000.31 998.66 997.93 997.47 997.84 998.04 998.41 998.78 999.50
1016.20 1013.24 1009.38 1009.18 1010.10 1009.71 1008.87 1007.57 1006.13 1005.15 1004.03 1003.21 1002.65 1002.52 1002.24 1001.91 1001.46 1000.73 1000.00 999.04 997.90 997.75 997.69 997.53 996.91 996.96 996.26 995.34 995.30 995.29 996.26 997.79 999.77 1000.74 1001.00 1000.88 1000.27 998.92 998.35 998.22 998.35 998.69 998.86 998.86 999.49
1016.60 1013.05 1009.55 1009.22 1009.56 1008.96 1008.00 1006.59 1005.44 1004.39 1003.59 1003.22 1003.09 1002.93 1002.72 1002.86 1002.51 1001.10 1000.09 999.19 998.44 998.02 998.11 997.89 997.33 997.27 996.70 995.68 994.97 995.25 995.81 996.84 998.00 999.29 1000.25 1001.20 1000.95 999.95 999.47 999.27 1000.27 999.64 999.79 999.93 1000.57
1016.90 1013.19 1010.15 1009.38 1009.22 1009.10 1008.27 1006.88 1005.40 1004.16 1003.63 1003.17 1003.27 1003.41 1003.26 1003.19 1002.64 1001.87 1000.73 999.46 999.43 999.16 998.83 998.42 998.54 998.49 997.58 996.26 995.69 995.89 996.21 996.21 997.49 999.34 999.62 1000.12 1001.17 1001.43 1000.56 1000.08 1000.55 1001.41 1000.79 1001.15 1001.61
1016.75 1013.50 1012.06 1010.54 1010.02 1009.44 1008.16 1007.04 1005.89 1004.94 1004.14 1003.44 1003.60 1003.62 1003.58 1003.52 1003.14 1002.53 1001.53 1000.22 999.49 999.45 999.02 1000.04 1000.24 999.69 997.98 996.58 996.28 995.79 996.45 996.96 997.74 998.29 999.08 1000.00 1000.65 1001.34 1001.13 1000.32 1001.41 1001.79 1004.03 1001.98 1002.24
1016.61 1014.53 1013.35 1012.29 1010.81 1009.70 1008.47 1007.73 1006.56 1005.70 1005.14 1004.33 1003.91 1003.84 1003.75 1003.90 1003.51 1002.65 1001.67 1001.09 1000.20 999.97 999.88 1000.57 1001.30 1001.08 999.31 997.68 997.14 997.02 997.42 997.52 997.91 998.24 998.39 999.37 1000.41 1000.04 1000.86 1000.70 1000.51 1001.67 1002.12 1002.07 1002.73
1016.31 1015.21 1014.51 1012.86 1011.47 1010.12 1008.68 1008.09 1007.24 1006.69 1005.67 1004.78 1004.17 1004.15 1004.24 1003.85 1003.52 1002.33 1001.30 1000.62 1000.35 1000.57 1000.97 1001.85 1002.71 1003.13 1001.72 1000.12 998.69 998.69 999.59 999.90 999.91 1000.04 998.57 999.86 1001.12 1001.55 1002.03 1002.16 1001.59 1001.48 1001.85 1002.43 1003.20
Wind_Speed
22 21 20 19 20 20 20 20 20 21 20 20 19 18 18 17 18 4 6 8 7 16 4 4 8 12 17 14 16 15 2 5 11 18 5 3 8 6 4 8 4 1 9 17 16
20 21 21 21 21 21 21 20 20 19 19 19 20 19 16 17 5 9 11 13 10 15 5 9 11 13 6 11 9 8 3 7 11 6 7 15 22 9 3 7 4 12 17 18 17
21 20 20 21 22 22 22 21 21 21 20 19 18 19 17 13 6 4 3 13 14 15 8 11 14 14 10 12 17 9 7 13 7 7 10 10 13 6 9 3 8 19 19 18 16
21 22 23 23 23 22 22 22 22 22 21 20 19 20 21 4 5 3 5 6 11 10 8 10 14 11 10 13 15 9 12 6 8 5 4 12 10 8 13 12 18 20 21 18 17
21 22 24 24 24 24 23 23 22 22 20 19 17 16 10 4 11 6 7 5 5 4 12 12 13 11 13 14 13 10 13 13 10 11 5 6 3 7 14 12 18 22 21 19 16
22 22 22 22 24 24 25 25 23 23 21 16 14 14 2 9 4 10 9 7 10 8 9 13 9 11 12 12 9 14 18 17 12 12 15 6 8 3 9 23 19 24 22 18 17
21 23 24 24 24 25 26 27 27 24 22 16 11 5 5 22 2 10 11 7 8 8 11 12 13 9 9 11 12 14 15 15 13 12 13 16 3 3 15 25 25 21 20 19 16
19 21 22 23 24 27 28 29 31 26 21 17 7 6 9 10 14 15 13 10 11 11 13 15 12 7 4 7 11 12 10 8 18 16 13 5 4 8 9 10 19 19 20 19 18
20 21 23 25 25 25 27 33 35 24 13 4 3 5 9 10 9 17 17 15 12 11 11 15 8 6 6 6 6 6 11 16 22 18 7 7 9 10 7 8 14 17 18 19 18
22 24 25 26 26 25 28 34 27 7 4 7 8 5 8 14 11 12 11 14 12 12 15 14 5 4 4 3 7 9 9 14 14 14 6 9 10 10 11 11 22 19 19 19 19
22 24 25 27 30 26 18 11 6 4 4 8 7 7 17 17 18 16 15 13 14 9 12 12 5 8 13 14 16 17 18 17 14 14 3 5 5 6 10 9 14 18 20 19 21
22 23 26 28 32 30 6 4 11 11 13 14 20 24 22 24 27 26 19 16 13 17 15 7 13 14 15 17 18 19 18 18 14 10 6 8 9 8 9 7 7 14 21 22 18
20 22 25 27 33 12 10 15 13 12 12 17 23 19 21 18 26 25 10 15 11 14 16 14 16 17 19 18 20 14 8 8 7 11 10 6 8 7 10 7 8 7 22 22 23
20 21 23 27 8 11 8 16 14 9 6 12 11 19 16 24 25 24 20 17 12 18 18 14 16 20 19 16 17 10 11 14 7 8 5 4 7 8 8 11 9 10 11 18 19
22 22 22 13 8 6 10 15 18 7 7 11 10 14 11 21 23 17 21 11 20 19 10 17 21 19 20 21 15 10 7 6 6 7 4 9 2 10 8 6 6 5 12 16 17
22 21 19 9 5 16 16 17 5 2 9 10 16 25 12 18 23 21 19 16 15 12 17 22 20 18 16 16 12 8 7 5 3 1 5 10 5 10 7 8 4 15 10 9 8
24 25 15 6 7 4 11 5 2 5 11 9 22 28 23 19 22 24 23 20 18 10 14 19 18 21 15 14 11 7 4 2 5 5 8 10 5 16 11 10 10 9 9 8 9
27 32 9 9 9 10 3 2 4 10 11 20 21 26 20 8 20 22 22 21 20 19 10 15 15 16 22 15 9 7 9 8 8 6 15 4 8 19 16 11 9 12 11 9 8
27 5 6 8 13 8 2 3 5 5 10 20 26 17 22 19 14 14 14 18 20 17 19 16 18 13 21 20 14 8 7 8 5 9 4 6 11 8 13 9 3 8 10 9 9
8 6 7 2 14 3 2 5 7 14 20 19 19 18 20 20 15 12 8 5 4 15 17 15 15 10 15 11 17 12 9 3 3 5 6 8 4 4 4 10 15 13 9 11 16
3 4 5 8 5 2 4 6 15 18 17 16 18 17 16 14 16 14 12 8 16 18 12 12 11 9 14 17 14 6 6 5 4 5 7 4 4 3 7 13 10 10 9 10 16
4 4 4 2 2 4 7 7 7 17 18 17 11 12 11 13 15 16 16 12 15 10 11 10 8 6 14 16 13 9 13 12 6 9 4 6 7 8 7 10 10 9 8 9 11
5 5 6 3 4 5 9 14 16 18 12 8 10 14 15 12 13 11 17 15 16 16 5 7 6 6 11 11 9 5 11 9 7 4 9 5 5 11 9 13 16 9 6 7 6
4 5 3 3 6 8 13 13 17 12 11 7 6 10 10 10 13 11 16 16 20 9 10 5 4 3 6 9 6 6 11 8 8 6 8 7 5 5 7 8 20 19 5 7 7
4 3 6 4 8 14 14 13 15 12 15 5 6 8 12 6 7 10 15 20 21 13 2 6 5 11 9 7 7 13 2 12 7 7 6 9 10 8 8 5 11 12 15 6 7
3 5 7 10 10 13 10 11 13 11 11 12 7 11 12 7 11 13 11 10 15 12 5 5 6 10 8 8 10 7 13 20 17 11 8 8 4 6 5 4 9 11 11 8 7
5 5 4 7 9 10 2 6 11 12 13 19 11 7 8 13 19 21 15 11 14 4 1 5 4 6 7 19 15 3 3 4 5 29 2 5 5 7 6 8 6 9 15 18 13
Wind_Direction
357 355 352 349 345 343 341 339 336 334 332 328 328 329 328 325 304 180 240 224 186 177 235 200 219 234 250 248 246 266 279 249 190 233 138 181 75 346 155 109 20 111 134 138 148
356 352 348 346 343 339 337 335 331 328 325 325 326 326 327 328 295 233 232 162 150 155 205 228 250 233 235 256 257 192 176 266 279 163 121 159 144 156 148 118 79 97 114 137 144
353 351 347 342 339 335 334 331 328 326 324 324 325 323 323 320 297 281 122 152 158 172 230 234 261 290 295 286 281 280 218 273 278 122 173 117 148 139 147 152 174 147 145 152 153
350 346 343 340 336 333 330 327 325 322 321 323 327 326 320 262 293 57 145 169 170 187 252 261 256 276 276 279 280 292 273 282 294 194 170 150 130 184 165 197 178 158 154 159 164
347 343 340 336 333 330 326 323 319 316 315 319 324 330 346 284 253 131 148 147 162 231 224 234 252 258 271 290 327 319 319 324 326 330 305 144 188 203 215 161 163 149 156 167 169
344 339 335 332 329 326 323 320 314 311 308 313 318 315 258 263 218 142 167 149 210 208 225 238 257 260 280 305 313 302 312 309 309 306 294 245 201 232 117 124 152 156 160 172 176
341 336 332 330 327 323 320 315 309 305 301 304 303 273 248 242 320 169 175 191 227 204 234 243 250 266 292 306 301 308 311 307 291 259 258 258 211 108 147 157 159 165 164 172 183
336 332 326 324 323 321 318 311 303 298 297 292 261 244 245 257 257 228 208 204 213 244 228 258 276 269 271 301 301 298 314 303 280 275 278 114 265 188 194 145 160 164 172 176 183
336 331 328 325 322 319 316 308 296 291 274 246 195 227 261 279 222 240 204 202 203 226 258 260 268 272 315 299 293 284 263 268 279 274 201 141 224 216 197 166 148 178 181 180 182
336 334 332 325 322 322 319 300 285 335 192 198 260 287 267 254 247 222 230 198 211 202 227 241 247 239 289 266 253 254 254 263 264 294 181 203 246 155 198 166 195 192 187 182 178
334 331 329 326 319 321 336 333 8 350 202 265 248 256 287 277 263 241 217 225 211 231 220 223 198 216 227 234 239 252 261 268 277 291 352 266 255 223 224 217 218 190 187 183 185
331 331 329 326 317 314 291 271 297 289 302 293 285 282 271 273 279 282 215 202 208 221 233 223 227 226 232 245 249 252 257 267 279 293 302 299 290 278 280 250 255 180 181 185 169
328 329 328 329 313 304 306 284 286 332 288 282 258 260 254 254 259 260 233 192 200 222 230 223 229 235 236 238 253 261 253 274 277 306 314 317 317 304 288 271 274 253 186 179 169
327 328 329 335 332 335 289 336 339 322 293 265 242 239 236 235 256 257 252 205 204 215 225 241 246 247 253 242 234 235 244 265 250 274 256 270 273 291 267 259 244 263 166 171 168
326 326 327 327 292 295 300 324 310 327 295 287 261 225 203 202 227 246 254 229 219 209 209 234 238 243 246 250 253 227 250 273 296 298 352 303 4 263 282 296 33 83 83 151 146
316 315 325 312 205 247 287 288 314 260 253 277 301 304 218 198 222 239 245 240 246 251 227 232 248 252 261 264 254 221 257 255 317 323 311 257 201 270 258 191 152 122 118 152 179
314 310 302 278 235 357 323 311 300 231 317 289 335 337 327 199 211 214 231 236 219 221 246 250 243 256 259 272 282 216 131 343 330 330 244 244 227 249 252 180 171 162 140 148 141
318 312 256 206 229 255 271 318 257 267 276 306 333 325 328 321 209 216 217 226 238 214 217 237 253 236 258 253 220 227 157 161 211 224 255 285 230 252 232 184 159 169 160 147 119
316 286 265 233 214 240 273 249 252 274 290 325 320 323 326 332 1 356 224 217 229 237 216 227 239 223 237 252 247 251 238 211 208 241 285 257 291 320 87 100 32 95 99 98 100
318 290 273 165 180 194 222 257 286 298 296 297 302 310 316 351 1 353 326 292 252 248 240 243 238 237 265 257 242 177 193 271 305 194 269 284 290 245 20 123 129 111 109 102 105
254 285 205 149 142 204 241 256 290 290 290 288 287 305 319 330 327 329 305 325 0 325 321 353 209 231 242 252 250 238 207 222 153 161 198 256 316 236 86 123 119 121 134 124 127
293 284 157 176 227 221 234 249 239 275 282 289 304 319 310 326 313 320 325 346 327 309 307 289 220 196 233 253 259 225 202 179 179 274 216 166 233 284 138 144 131 136 130 126 128
290 273 268 152 257 279 289 303 284 256 287 326 326 328 331 331 321 311 316 311 301 338 325 317 329 246 267 262 255 346 275 181 176 125 229 154 230 1 52 53 23 110 102 106 108
284 295 247 192 235 276 282 285 302 334 307 258 274 302 304 307 309 309 318 318 322 291 316 331 260 203 235 218 205 198 244 249 166 187 234 221 137 323 31 60 76 8 72 96 114
241 290 356 318 338 311 311 316 312 312 323 297 341 300 292 291 285 295 306 311 306 300 201 105 290 340 302 335 321 213 343 319 308 232 171 191 142 206 148 125 125 132 300 116 109
294 349 349 296 293 300 305 342 327 321 329 314 302 301 330 325 305 304 263 276 282 315 13 0 348 350 299 325 320 334 188 252 269 268 262 170 178 138 184 168 101 123 162 130 139
344 345 333 294 297 300 293 244 291 305 299 303 327 300 318 312 325 305 302 265 250 265 207 62 74 28 308 356 320 56 12 31 334 352 224 132 136 131 137 88 39 79 82 62 42